Location: Unspecified
(0.0000°N, 0.0000°E)
Time: 04:23:58
(UTC+00:00)

ISS - Pass Details

Date: 14 June 2019
Orbit: 407 x 418 km, 51.6° (Epoch: 27 June)

Event Time Altitude Azimuth Distance (km) Brightness Sun altitude
Rises 19:31:49 0° 316° (NW) 2,338 1.3 -20.9°
Reaches altitude 10° 19:33:57 10° 310° (NW) 1,481 0.1 -21.4°
Enters shadow 19:37:04 47° 241° (WSW) 555 -3.0 -22.1°
